windsock image

Welcome to Bigfield Strip.

anemometer image
     

 Help for dials.  
 
Local Met:

Wind:   
10 Min average:  
235 ° / 0.3 kts (1.7)
239° / 0.0

Temperature:  
9.6°C C
Dew Point:  
8.2°C C
QNH:  
Trend:  
1018.3 mb mb
+0.1mb/hr
BigField Strip. This image updates approximately every minute, it can have a two minute delay.  
 

Humidity:  
91 %
Sunrise:   03:52z
Sunset:   20:23z
Updated:  
  UTC
 
   More met info, trends, radar, history etc. available here   

LUTON Metar   EGGW 060220Z 00000KT CAVOK 10/09 Q1019
 
  TAF   2015/07/05 18:15 TAF EGGW 051658Z 0518/0618 25012KT 9999 SCT040 PROB40 TEMPO 0518/0520 26015G25KT 7000 SHRA PROB30 TEMPO 0614/0618 8000 RA
 
BENSON Metar   EGUB 060150Z AUTO 17005KT 9999 // NCD 10/09 Q1019
 
  TAF   2015/07/05 15:24 TAF TAF EGUB 051510Z 0515/0518 CNL
 
Big Field view 1 icon   Big Field view 2 icon   Big Field view 3 icon   Chart AL3a in PDF icon   Chart AL3a in Word icon

WARNING:
This information is provided by the Airstrip unofficial weather station, DO NOT depend on the data provided here for any purpose.
This page is updated for latest Metars & TAF's every 5 minutes. Refresh the browser to check for the lastest.
Page designed for a minimum browser size of 1024x768.
© Copyright 2015 BigField Strip. This page auto generated 02:46 UTC - 06/07/2015   Contact Us
Valid HTML 4.01 Transitional     Windows uptime: 0 Days 0 Hours 14 Minutes 20 Seconds    WD started: 02:38 06/07/15    Free memory: 1512MB     Valid CSS!